Flag for Romania Weather past 2 weeks in Constanța, Romania

Now
54 °F

Overcast.


Feels Like: 54 °F
Forecast: 49 / 68 °F
Wind: 2 mph from Northeast

Location: Constanta

Current Time: Apr 28, 2015 at 9:45:20 PM

Latest Report: Apr 28, 2015 at 9:00 PM


Visibility: 6 mi

Pressure: 29.78 "Hg

Humidity: 87%

Dew point: 51 °F

Location of ConstanțaLocation

Historic Weather in Constanța — Graph

°F

Constanța temperature yesterday

Maximum temperature yesterday: 57 °F (at 3:00 PM)
Minimum temperature yesterday: 51 °F (at 6:00 AM)
Average temperature yesterday: 54 °F

Past Weeks' High & Low Weather Summary

 TemperatureHumidityPressure
High82 °F (Apr 17, 3:00 PM)99% (Apr 26, 7:00 AM)30.23 "Hg (Apr 26, 7:00 AM)
Low38 °F (Apr 23, 7:00 AM)22% (Apr 17, 3:00 PM)29.73 "Hg (Apr 18, 3:00 PM)
Average54 °F66%30.00 "Hg
* Reported Apr 13 8:00 PM — Apr 28 8:00 PM, Constanța, Weather by CustomWeather, © 2015

Note: Actual official high and low records may vary slightly from our data, if they occured in-between our weather recording intervals... More about our weather records

Advertising

Constanța weather history for previous 24 hours

 ConditionsComfort  
Time TempWeatherWind HumidityBarometerVisibility
8:00 PM
Tue, Apr 28
54 °FOvercast.3 mph91%29.78 "Hg6 mi
7:00 PM54 °FOvercast.2 mph91%29.79 "Hg6 mi
6:00 PM55 °FOvercast.2 mph87%29.82 "Hg6 mi
5:00 PM56 °FSprinkles. Overcast.1 mph82%29.85 "Hg6 mi
4:00 PM57 °FOvercast.3 mph75%29.85 "Hg6 mi
3:00 PM58 °FOvercast.2 mph72%29.87 "Hg6 mi
2:00 PM58 °FPartly sunny.6 mph73%29.84 "Hg6 mi
1:00 PM60 °FPartly sunny.3 mph72%29.85 "Hg6 mi
12:00 PM57 °FOvercast.3 mph81%29.86 "Hg6 mi
11:00 AM56 °FOvercast.2 mph84%29.88 "Hg6 mi
10:00 AM57 °FPartly sunny.1 mph83%29.88 "Hg6 mi
9:00 AM56 °FPartly sunny.1 mph87%29.88 "Hg6 mi
8:00 AM54 °FFog.2 mph91%29.88 "Hg2 mi
7:00 AM52 °FFog.2 mph95%29.87 "Hg2 mi
6:00 AM52 °FFog.1 mph94%29.87 "Hg2 mi
5:00 AM52 °FFog.1 mph95%29.88 "Hg2 mi
4:00 AM52 °FFog.1 mph97%29.89 "Hg2 mi
3:00 AM51 °FFog.1 mph99%29.90 "Hg2 mi
2:00 AM51 °FFog.1 mph99%29.92 "Hg2 mi
1:00 AM52 °FFog.2 mph99%29.93 "Hg2 mi
11:00 PM
Mon, Apr 27
52 °FFog.2 mph97%29.93 "Hg2 mi
10:00 PM53 °FFog.2 mph96%29.94 "Hg2 mi
9:00 PM52 °FClear.2 mph95%29.93 "Hg6 mi
Weather by CustomWeather, © 2015

See weather overviewHow to use our weather pages